Weather History for Westminster, MD

Change the Weather History Date:

Wednesday, October 16, 2013

  Actual Average (KTHV) Record (KTHV)
Temperature  
Mean Temperature 60 °F -  
Max Temperature 66 °F 0 °F 77 °F (2008)
Min Temperature 55 °F - 28 °F (2006)
Degree Days  
Heating Degree Days 4    
Growing Degree Days 10 (Base 50)    
Moisture  
Dew Point 57 °F    
Average Humidity 86    
Maximum Humidity 100    
Minimum Humidity 59    
Precipitation  
Precipitation 0.01 in - - ()
Sea Level Pressure  
Sea Level Pressure 30.02 in    
Wind  
Wind Speed 2 mph (SSE)    
Max Wind Speed 9 mph    
Max Gust Speed -    
Visibility 9 miles    
Events Rain    
Averages and records for this station are not official NWS values.
T = Trace of Precipitation, MM = Missing Value Source: NWS Daily Summary

Daily Weather History Graph

Daily Weather History Graph

Search for Another Location

Airport:

Trip Planner

Search our weather history database for the weather conditions in past years. The results will help you decide how hot, cold, wet, or windy it might be!

Date:

Astronomy

Oct. 16, 2013 Rise Set
Actual Time 7:19 AM EDT 6:27 PM EDT
Civil Twilight 6:52 AM EDT 6:54 PM EDT
Nautical Twilight 6:20 AM EDT 7:25 PM EDT
Astronomical Twilight 5:49 AM EDT 7:56 PM EDT
Moon 5:05 PM EDT 4:45 AM EDT
Length of Visible Light 12h 01m
Length of Day
11h 07m
Waxing Gibbous, 94% of the Moon is Illuminated
Oct 16
Waxing Gibbous
Oct 18
Full
Oct 26
Last Quarter
Nov 3
New
Nov 10
First Quarter

Hourly Weather History & Observations

Time (EDT) Temp. Dew Point Humidity Pressure Visibility Wind Dir Wind Speed Gust Speed Precip Events Conditions
12:05 AM 57.2 °F 46.4 °F 67% 30.11 in 10.0 mi Calm Calm - N/A   Overcast
12:25 AM 57.2 °F 44.6 °F 63% 30.10 in 10.0 mi SE 4.6 mph - N/A   Overcast
12:45 AM 59.0 °F 44.6 °F 59% 30.10 in 10.0 mi SE 3.5 mph - N/A   Overcast
1:05 AM 59.0 °F 46.4 °F 63% 30.09 in 10.0 mi SE 5.8 mph - N/A   Overcast
1:25 AM 59.0 °F 46.4 °F 63% 30.09 in 10.0 mi SE 5.8 mph - N/A   Overcast
1:45 AM 57.2 °F 48.2 °F 72% 30.09 in 10.0 mi Calm Calm - N/A   Overcast
2:05 AM 59.0 °F 48.2 °F 67% 30.10 in 10.0 mi Calm Calm - N/A   Overcast
2:45 AM 55.4 °F 53.6 °F 94% 30.10 in 4.0 mi Calm Calm - N/A   Heavy Drizzle
3:05 AM 55.4 °F 53.6 °F 94% 30.10 in 4.0 mi Calm Calm - 0.01 in   Drizzle
3:25 AM 55.4 °F 53.6 °F 94% 30.10 in 4.0 mi Calm Calm - 0.01 in   Light Drizzle
3:45 AM 55.4 °F 53.6 °F 94% 30.10 in 4.0 mi Calm Calm - 0.01 in Rain Rain
4:05 AM 55.4 °F 55.4 °F 100% 30.09 in 5.0 mi Calm Calm - N/A Rain Rain
4:25 AM 55.4 °F 55.4 °F 100% 30.07 in 7.0 mi Calm Calm - N/A Rain Light Rain
4:45 AM 57.2 °F 55.4 °F 94% 30.07 in 7.0 mi Calm Calm - N/A   Overcast
5:05 AM 57.2 °F 55.4 °F 94% 30.07 in 5.0 mi Calm Calm - N/A Rain Light Rain
5:25 AM 57.2 °F 55.4 °F 94% 30.08 in 7.0 mi Calm Calm - N/A   Overcast
5:45 AM 57.2 °F 55.4 °F 94% 30.08 in 5.0 mi Calm Calm - N/A   Overcast
6:05 AM 57.2 °F 55.4 °F 94% 30.07 in 7.0 mi Calm Calm - N/A   Overcast
6:25 AM 57.2 °F 53.6 °F 88% 30.07 in 10.0 mi SE 3.5 mph - N/A   Overcast
6:45 AM 57.2 °F 53.6 °F 88% 30.07 in 10.0 mi ESE 3.5 mph - N/A   Overcast
7:05 AM 57.2 °F 53.6 °F 88% 30.06 in 10.0 mi Calm Calm - N/A   Overcast
7:30 AM 57.2 °F 53.6 °F 88% 30.07 in 10.0 mi Calm Calm - N/A   Overcast
7:50 AM 57.2 °F 53.6 °F 88% 30.07 in 10.0 mi Calm Calm - N/A   Overcast
8:10 AM 57.2 °F 53.6 °F 88% 30.08 in 10.0 mi Calm Calm - N/A   Overcast
8:30 AM 57.2 °F 53.6 °F 88% 30.08 in 10.0 mi ESE 3.5 mph - N/A   Overcast
8:50 AM 57.2 °F 53.6 °F 88% 30.08 in 10.0 mi Calm Calm - N/A   Overcast
9:10 AM 59.0 °F 55.4 °F 88% 30.08 in 10.0 mi ESE 3.5 mph - N/A   Overcast
9:30 AM 60.8 °F 55.4 °F 82% 30.07 in 10.0 mi SE 4.6 mph - N/A   Overcast
9:50 AM 60.8 °F 55.4 °F 82% 30.07 in 10.0 mi SSE 3.5 mph - N/A   Overcast
10:10 AM 60.8 °F 55.4 °F 82% 30.06 in 10.0 mi Calm Calm - N/A   Overcast
10:30 AM 62.6 °F 55.4 °F 77% 30.06 in 10.0 mi South 3.5 mph - N/A   Overcast
10:50 AM 62.6 °F 57.2 °F 82% 30.06 in 10.0 mi WSW 3.5 mph - N/A   Scattered Clouds
11:10 AM 62.6 °F 57.2 °F 82% 30.05 in 10.0 mi SSW 4.6 mph - N/A   Scattered Clouds
11:30 AM 64.4 °F 57.2 °F 77% 30.05 in 10.0 mi South 3.5 mph - N/A   Scattered Clouds
11:50 AM 64.4 °F 59.0 °F 83% 30.04 in 10.0 mi SSW 4.6 mph - N/A   Scattered Clouds
12:10 PM 64.4 °F 59.0 °F 83% 30.04 in 10.0 mi Calm Calm - N/A   Mostly Cloudy
12:30 PM 64.4 °F 59.0 °F 83% 30.02 in 10.0 mi Calm Calm - N/A   Overcast
12:50 PM 64.4 °F 59.0 °F 83% 30.02 in 10.0 mi SSW 3.5 mph - N/A   Overcast
1:10 PM 64.4 °F 59.0 °F 83% 30.02 in 10.0 mi SSW 4.6 mph - N/A   Overcast
1:30 PM 64.4 °F 59.0 °F 83% 30.02 in 10.0 mi Calm Calm - N/A   Overcast
1:50 PM 66.2 °F 60.8 °F 83% 30.00 in 10.0 mi SSE 3.5 mph - N/A   Overcast
2:10 PM 66.2 °F 60.8 °F 83% 29.99 in 10.0 mi Calm Calm - N/A   Overcast
2:30 PM 66.2 °F 60.8 °F 83% 29.99 in 10.0 mi South 4.6 mph - N/A   Overcast
2:50 PM 66.2 °F 60.8 °F 83% 29.99 in 10.0 mi SW 3.5 mph - N/A   Overcast
3:10 PM 66.2 °F 60.8 °F 83% 29.98 in 10.0 mi Calm Calm - N/A   Overcast
3:30 PM 66.2 °F 60.8 °F 83% 29.98 in 10.0 mi Calm Calm - N/A   Overcast
3:50 PM 66.2 °F 60.8 °F 83% 29.98 in 10.0 mi Calm Calm - N/A   Overcast
4:10 PM 66.2 °F 60.8 °F 83% 29.98 in 10.0 mi Calm Calm - N/A   Overcast
4:30 PM 66.2 °F 60.8 °F 83% 29.97 in 10.0 mi Calm Calm - N/A   Overcast
4:50 PM 66.2 °F 60.8 °F 83% 29.97 in 10.0 mi Calm Calm - N/A   Overcast
5:10 PM 66.2 °F 60.8 °F 83% 29.96 in 10.0 mi Calm Calm - N/A   Overcast
5:30 PM 66.2 °F 60.8 °F 83% 29.95 in 10.0 mi SSE 6.9 mph - N/A   Mostly Cloudy
5:50 PM 66.2 °F 60.8 °F 83% 29.95 in 10.0 mi SSE 4.6 mph - N/A   Scattered Clouds
6:10 PM 66.2 °F 60.8 °F 83% 29.95 in 10.0 mi SE 4.6 mph - N/A   Clear
6:30 PM 64.4 °F 60.8 °F 88% 29.95 in 10.0 mi SE 5.8 mph - N/A   Clear
6:50 PM 64.4 °F 60.8 °F 88% 29.95 in 10.0 mi SE 5.8 mph - N/A   Clear
7:10 PM 64.4 °F 60.8 °F 88% 29.95 in 7.0 mi SE 5.8 mph - N/A   Clear
7:30 PM 64.4 °F 60.8 °F 88% 29.96 in 10.0 mi SSE 5.8 mph - N/A   Clear
7:50 PM 62.6 °F 60.8 °F 94% 29.96 in 10.0 mi SE 5.8 mph - N/A   Clear
8:10 PM 62.6 °F 60.8 °F 94% 29.96 in 10.0 mi SE 5.8 mph - N/A   Clear
8:30 PM 62.6 °F 60.8 °F 94% 29.96 in 7.0 mi SSE 5.8 mph - N/A   Clear
8:50 PM 62.6 °F 60.8 °F 94% 29.96 in 7.0 mi SSE 8.1 mph - N/A   Scattered Clouds
9:10 PM 62.6 °F 60.8 °F 94% 29.97 in 5.0 mi SSE 9.2 mph - N/A   Mostly Cloudy
9:30 PM 62.6 °F 60.8 °F 94% 29.96 in 5.0 mi South 8.1 mph - N/A   Mostly Cloudy
9:50 PM 62.6 °F 60.8 °F 94% 29.96 in 5.0 mi South 6.9 mph - N/A   Scattered Clouds
10:10 PM 62.6 °F 60.8 °F 94% 29.97 in 7.0 mi South 4.6 mph - N/A   Scattered Clouds
10:30 PM 62.6 °F 60.8 °F 94% 29.96 in 7.0 mi South 8.1 mph - N/A   Scattered Clouds
10:50 PM 62.6 °F 60.8 °F 94% 29.95 in 7.0 mi South 5.8 mph - N/A   Clear
11:10 PM 62.6 °F 60.8 °F 94% 29.95 in 7.0 mi South 5.8 mph - N/A   Clear
11:30 PM 62.6 °F 60.8 °F 94% 29.94 in 7.0 mi South 4.6 mph - N/A   Clear
11:50 PM 62.6 °F 60.8 °F 94% 29.93 in 7.0 mi South 5.8 mph - N/A   Clear